Regional Weather Roundup
Issued by NWS

Home | Current Version | Previous Version | Graphics & Text | Print | Product List | Glossary On
Versions: 1 2 3 4 5 6 7 8 9 10 11 12 13 14 15 16 17 18 19 20 21 22 23 24 25 26 27 28 29 30 31 32 33 34 35 36 37 38 39 40 41 42 43 44 45 46 47 48 49 50
000
ASUS45 KBOI 021110
RWRID

IDAHO REGIONAL WEATHER ROUNDUP
NATIONAL WEATHER SERVICE BOISE ID
500 AM MDT WED SEP 02 2015

NOTE: "FAIR" INDICATES FEW OR NO CLOUDS BELOW 12000 FEET
WITH NO SIGNIFICANT WEATHER AND/OR OBSTRUCTIONS TO VISIBILITY

IDZ012-014-021200-
SOUTHWEST IDAHO


CITY           SKY/WX    TMP DP  RH WIND       PRES   REMARKS
BOISE          MOCLDY    65  37  35 SE9       29.80R
CALDWELL       MOCLDY    55  39  54 E3        29.81R
MOUNTAIN HOME  PTCLDY    58  37  45 E7        29.81R
$$

IDZ016-017-021200-
SOUTHCENTRAL IDAHO


CITY           SKY/WX    TMP DP  RH WIND       PRES   REMARKS
BURLEY         CLEAR     56  41  57 SW10      29.88R
JEROME         CLEAR     62  34  35 S3        29.89R
TWIN FALLS     CLEAR     70  27  20 S15       29.87R
$$

IDZ019>023-021200-
SOUTHEAST IDAHO


CITY           SKY/WX    TMP DP  RH WIND       PRES   REMARKS
IDAHO FALLS    CLEAR     68  39  34 S12       29.90S
POCATELLO      CLEAR     74  36  25 S15G23    29.88S
REXBURG        PTCLDY    64  39  39 S10       29.91R
$$

IDZ006-010-011-018-031-032-021200-
CENTRAL IDAHO MOUNTAINS


CITY           SKY/WX    TMP DP  RH WIND       PRES   REMARKS
MCCALL         PTCLDY    49  37  63 NE3       29.86S
HAILEY         CLEAR     50  34  53 NW10      29.97S
STANLEY          N/A     38  27  64 CALM      29.99S
SALMON         PTCLDY    48  36  61 CALM      29.81S
CHALLIS        CLEAR     51  29  42 CALM      29.89S
$$

IDZ002-004-006-007-026-021200-
NORTHERN IDAHO


CITY           SKY/WX    TMP DP  RH WIND       PRES   REMARKS
LEWISTON       CLOUDY    66  41  40 W6        29.76R
LOWELL           N/A     55  51  86 NW3       29.79F
COEUR D`ALENE  CLOUDY    61  45  55 S10       29.76R
MULLAN PASS    CLOUDY    48  35  60 SW5       29.88S
$$



USA.gov is the U.S. government's official web portal to all federal, state and local government web resources and services.